Regional Weather Roundup
Issued by NWS

Home | Current Version | Previous Version | Graphics & Text | Print | Product List | Glossary On
Versions: 1 2 3 4 5 6 7 8 9 10 11 12 13 14 15 16 17 18 19 20 21 22 23 24 25 26 27 28 29 30 31 32 33 34 35 36 37 38 39 40 41 42 43 44 45 46 47 48 49 50
000
ASUS43 KTOP 011059
RWRKS

WEATHER ROUNDUP FOR KANSAS
NATIONAL WEATHER SERVICE GOODLAND KS
600 AM CDT SAT OCT 01 2016

NOTE:  "FAIR" INDICATES FEW OR NO CLOUDS BELOW 12,000 FEET WITH NO
SIGNIFICANT WEATHER AND/OR OBSTRUCTIONS TO VISIBILITY.

KSZ001>006-013>018-027>032-041>047-011200-
NORTHWEST KANSAS

CITY           SKY/WX    TMP DP  RH WIND       PRES   REMARKS
GOODLAND       CLEAR     47  42  83 S6        30.11S
HAYS           CLOUDY    48  37  66 CALM      30.11F
HILL CITY      CLOUDY    45  42  89 CALM      30.12F
RUSSELL        PTCLDY    51  46  83 SE8       30.10F
$$

KSZ061>065-074>080-084>089-011200-
SOUTHWEST KANSAS

CITY           SKY/WX    TMP DP  RH WIND       PRES   REMARKS
DODGE CITY     CLOUDY    56  47  71 SE8       30.10F
ELKHART          N/A     57  47  69 SW5         N/A
GARDEN CITY    CLOUDY    56  46  69 SE12      30.07F
GREAT BEND     MOCLDY    54  43  66 E5        30.12S
LIBERAL        CLEAR     57  45  62 S8        30.07S
$$

KSZ066>073-081>083-090>101-011200-
SOUTHEAST KANSAS

CITY           SKY/WX    TMP DP  RH WIND       PRES   REMARKS
CHANUTE        CLEAR     50  49  96 CALM      30.11S
COFFEYVILLE    CLEAR     49  48  97 CALM      30.10F
HUTCHINSON     CLEAR     47  46  97 CALM      30.12S
MEDICINE LODGE   N/A     58  48  69 E5        30.10F
NEWTON         CLEAR     55  48  77 S5        30.12S
PARSONS        CLEAR     47  46  97 CALM      30.12S
WICHITA INTL   CLOUDY    52  49  89 CALM      30.11S
WICHITA JABRA  CLEAR     53  50  89 CALM      30.11S
WICHITA MCCONL CLOUDY    56  48  76 E1        30.11S
WINFIELD       PTCLDY    53  51  93 CALM      30.12S
$$

KSZ007>012-019>026-033>040-048>060-102>105-011200-
NORTHEAST KANSAS

CITY           SKY/WX    TMP DP  RH WIND       PRES   REMARKS
CONCORDIA      MOCLDY    50  47  89 CALM      30.13S
EMPORIA        PTCLDY    51  50  96 CALM      30.11F
LAWRENCE       PTCLDY    48  48 100 NW5       30.13R
MANHATTAN      CLOUDY    49  48  97 CALM      30.13S
OLATHE IND     CLEAR     50  50 100 N5        30.13R FOG
OLATHE EXE     CLEAR     53  51  93 CALM      30.13R
SALINA         PTCLDY    51  48  89 CALM      30.13S
TOPEKA BILLARD FOG       50  48  93 CALM      30.13R VSB 1/2
TOPEKA FORBES  CLEAR     51  49  92 CALM      30.12S
$$



USA.gov is the U.S. government's official web portal to all federal, state and local government web resources and services.